Location: Observatoire de Paris
(48.8363°N, 2.3365°E)
Time: 03:21:32
(UTC+01:00)

Vanguard 3 - Pass Details

Date: 08 August 2021
Orbit: 510 x 3260 km, 33.3° (Epoch: 18 September)

Event Time Altitude Azimuth Distance (km) Brightness Sun altitude
Rises 21:18:55 0° 268° (W) 5,911 12.4 -9.4°
Reaches altitude 10° 21:22:53 10° 260° (W) 5,236 11.9 -9.9°
Maximum altitude 21:36:53 35° 203° (SSW) 4,279 10.6 -11.7°
Enters shadow 21:51:57 13° 150° (SSE) 5,889 10.9 -13.5°
